Location: Kellogg
(38.0159°N, 90.0546°W)
Time: 15:43:29
(UTC+00:00)

Altair - Pass Details

Date: 16 September 2024
Orbit: 1501 x 1682 km, 47.2° (Epoch: 15 October)

Event Time Altitude Azimuth Distance (km) Brightness Sun altitude
Exits shadow 11:15:18 - 284° (WNW) 4,532 9.4 -6.3°
Reaches altitude 10° 11:17:22 10° 288° (WNW) 3,930 9.1 -5.9°
Maximum altitude 11:27:10 51° 3° (N) 2,048 8.3 -4.0°
Drops below altitude 10° 11:36:58 10° 77° (ENE) 3,925 11.6 -2.1°
Sets 11:40:16 0° 83° (E) 4,897 13.7 -1.4°
